Home > Weather > Lexington > Past weeks

Flag for USA Past Weather in Lexington, Virginia, USA — Yesterday and Last 2 Weeks

Now
64 °F

Clear.


Feels Like: 64 °F
Forecast: 62 / 86 °F
Wind: 7 mph from Southwest

Location: Hot Springs / Ingalls

Current Time: Jun 27, 2016 at 5:31:15 AM

Latest Report: Jun 27, 2016 at 4:55 AM


Visibility: 10 mi

Pressure: 30.20 "Hg

Humidity: 100%

Dew Point: 64 °F

Location of LexingtonLocation

Past Weather in Lexington — Graph

°F

Lexington Temperature Yesterday

Maximum temperature yesterday: 73 °F (at 5:15 PM)
Minimum temperature yesterday: 61 °F (at 2:35 AM)
Average temperature yesterday: 65 °F

High & Low Weather Summary for the Past Weeks

 TemperatureHumidityPressure
High80 °F (Jun 16, 3:15 PM)100% (Jun 15, 8:35 PM)30.50 "Hg (Jun 15, 8:35 PM)
Low50 °F (Jun 13, 5:55 AM)21% (Jun 13, 5:20 PM)29.80 "Hg (Jun 16, 7:35 PM)
Average66 °F78%30.15 "Hg
* Reported Jun 12 4:15 AM — Jun 27 4:15 AM, Lexington, Weather by CustomWeather, © 2016

Note: Actual official high and low records may vary slightly from our data, if they occured in-between our weather recording intervals... More about our weather records

Advertising

Lexington Weather History for the Previous 24 Hours

Scroll right to see more
 ConditionsComfort  
Time TempWeatherWind HumidityBarometerVisibility
4:15 AM
Mon, Jun 27
64 °FClear.12 mph100%30.21 "Hg10 mi
3:55 AM64 °FClear.12 mph100%30.21 "Hg10 mi
3:35 AM63 °FClear.10 mph100%30.22 "Hg10 mi
3:15 AM64 °FClear.10 mph100%30.22 "Hg10 mi
2:55 AM64 °FClear.8 mph100%30.23 "Hg10 mi
2:35 AM64 °FClear.9 mph100%30.23 "Hg10 mi
2:15 AM64 °FClear.7 mph100%30.24 "Hg10 mi
1:55 AM63 °FClear.6 mph100%30.26 "Hg10 mi
1:35 AM64 °FPassing clouds.6 mph100%30.26 "Hg10 mi
1:15 AM64 °FPassing clouds.8 mph100%30.27 "Hg10 mi
12:55 AM64 °FOvercast.7 mph100%30.28 "Hg10 mi
12:15 AM64 °FClear.9 mph100%30.28 "Hg10 mi
11:55 PM
Sun, Jun 26
64 °FClear.10 mph100%30.28 "Hg10 mi
11:35 PM64 °FClear.9 mph100%30.28 "Hg10 mi
11:15 PM64 °FClear.12 mph100%30.28 "Hg10 mi
10:55 PM64 °FClear.9 mph100%30.27 "Hg10 mi
10:15 PM64 °FClear.8 mph100%30.27 "Hg10 mi
9:55 PM64 °FClear.6 mph100%30.26 "Hg10 mi
9:35 PM65 °FSunny.5 mph100%30.26 "Hg10 mi
9:15 PM65 °FScattered clouds.6 mph100%30.24 "Hg10 mi
8:55 PM65 °FScattered clouds.7 mph100%30.24 "Hg10 mi
8:35 PM66 °FSunny.8 mph100%30.24 "Hg10 mi
8:15 PM67 °FSunny.7 mph97%30.24 "Hg10 mi
7:55 PM68 °FSunny.8 mph94%30.25 "Hg10 mi
7:35 PM69 °FSunny.7 mph89%30.25 "Hg10 mi
7:15 PM70 °FSunny.7 mph88%30.26 "Hg10 mi
6:55 PM70 °FSunny.6 mph92%30.27 "Hg10 mi
6:35 PM71 °FScattered clouds.6 mph91%30.27 "Hg10 mi
6:15 PM71 °FScattered clouds.7 mph89%30.27 "Hg10 mi
5:55 PM72 °FScattered clouds.7 mph86%30.28 "Hg10 mi
5:35 PM72 °FScattered clouds.7 mph80%30.28 "Hg10 mi
5:15 PM73 °FMostly cloudy.5 mph83%30.30 "Hg10 mi
4:55 PM72 °FPartly sunny.5 mph84%30.30 "Hg10 mi
4:15 PM72 °FScattered clouds.7 mph84%30.30 "Hg10 mi
3:55 PM71 °FBroken clouds.5 mph87%30.31 "Hg10 mi
3:15 PM72 °FPartly sunny.5 mph84%30.31 "Hg10 mi
2:55 PM70 °FMostly cloudy.6 mph90%30.32 "Hg10 mi
2:15 PM70 °FMore clouds than sun.7 mph88%30.33 "Hg10 mi
1:55 PM69 °FCloudy.7 mph91%30.33 "Hg10 mi
1:35 PM67 °FMostly cloudy.5 mph98%30.34 "Hg10 mi
1:15 PM66 °FLow clouds.5 mph100%30.35 "Hg7 mi
12:55 PM66 °FMostly cloudy.5 mph100%30.35 "Hg7 mi
12:35 PM67 °FMostly cloudy.5 mph99%30.36 "Hg10 mi
12:15 PM65 °FMostly cloudy.3 mph100%30.35 "Hg10 mi
11:55 AM64 °FFog.6 mph100%30.35 "Hg5 mi
11:35 AM64 °FFog.5 mph100%30.35 "Hg5 mi
11:15 AM64 °FFog.5 mph100%30.35 "Hg5 mi
10:55 AM63 °FFog.5 mph100%30.35 "Hg0 mi
10:15 AM64 °FFog.3 mph100%30.34 "Hg1 mi
9:55 AM64 °FMostly cloudy.5 mph100%30.34 "Hg7 mi
9:15 AM63 °FFog.3 mph100%30.35 "Hg5 mi
8:55 AM62 °FFog.5 mph100%30.34 "Hg1 mi
8:15 AM62 °FFog.6 mph100%30.31 "Hg0 mi
7:55 AM62 °FFog.6 mph100%30.32 "Hg0 mi
7:35 AM61 °FFog.7 mph100%30.32 "Hg0 mi
7:15 AM62 °FFog.10 mph100%30.31 "Hg0 mi
6:55 AM61 °FFog.7 mph100%30.31 "Hg0 mi
6:35 AM62 °FFog.5 mph100%30.31 "Hg0 mi
6:15 AM62 °FFog.7 mph100%30.32 "Hg0 mi
5:55 AM61 °FFog.5 mph100%30.32 "Hg1 mi
5:15 AM62 °FFog.5 mph100%30.33 "Hg0 mi
Weather by CustomWeather, © 2016

See weather overviewHow to use our weather pages